Regional Weather Roundup
Issued by NWS

Home | Current Version | Previous Version | Graphics & Text | Print | Product List | Glossary On
Versions: 1 2 3 4 5 6 7 8 9 10 11 12 13 14 15 16 17 18 19 20 21 22 23 24 25 26 27 28 29 30 31 32 33 34 35 36 37 38 39 40 41 42 43 44 45 46 47 48 49 50
000
ASUS43 KFSD 270202
RWRSD

WEATHER ROUNDUP FOR SOUTH DAKOTA
NATIONAL WEATHER SERVICE SIOUX FALLS SD
800 PM CST WED NOV 26 2014

NOTE: "FAIR" INDICATES FEW OR NO CLOUDS BELOW 12,000 FEET WITH NO
SIGNIFICANT WEATHER AND/OR OBSTRUCTIONS TO VISIBILITY.


SDZ001>005-009-010-012>017-270300-
NORTHWEST AND NORTH CENTRAL SOUTH DAKOTA

CITY           SKY/WX    TMP DP  RH WIND       PRES   REMARKS
BUFFALO          N/A     19  15  84 E6        30.21F WCI  11
FAITH            N/A     19  14  81 E5        30.33S WCI  12
MOBRIDGE       PTCLDY     7   1  76 E10       30.41R WCI  -8
$$

SDZ012>016-024>037-041>051-057-063-072>074-270300-
SOUTHWEST AND SOUTH CENTRAL SOUTH DAKOTA

CITY           SKY/WX    TMP DP  RH WIND       PRES   REMARKS
RAPID CTY ARPT FLURRIES  28  25  88 CALM      30.28R
PIERRE         CLOUDY    16  10  77 E8        30.40R WCI   5
CUSTER         CLOUDY    24  19  81 SW5       30.16S WCI  18
ELLSWORTH AFB  CLOUDY    28  26  92 CALM      30.27R
PHILIP         FLURRIES  23  17  78 E12       30.34R WCI  12
PINE RIDGE     CLOUDY    28  23  81 E3        30.27S
WINNER         CLOUDY    21  12  68 E7        30.38R WCI  12
$$

SDZ004>011-016>023-039-040-270300-
NORTHEAST SOUTH DAKOTA

CITY           SKY/WX    TMP DP  RH WIND       PRES   REMARKS
ABERDEEN       PTCLDY     2  -5  72 N10       30.49S WCI -14
WATERTOWN      MOCLDY     3  -6  66 N13       30.40R WCI -14
SISSETON         N/A     -2  -7  79 N10       30.48R WCI -19
$$

SDZ017-020-022-023-036>040-048>070-270300-
SOUTHEAST SOUTH DAKOTA

CITY           SKY/WX    TMP DP  RH WIND       PRES   REMARKS
SIOUX FALLS    CLOUDY    13   4  67 N15       30.40R WCI  -3
HURON          CLOUDY     8   1  73 N13       30.47R WCI  -8
MITCHELL       CLOUDY    12   3  67 N12       30.46R WCI  -2
YANKTON        PTCLDY    12   7  79 NW9       30.45R WCI   0
$$

ABBREVIATIONS USED IN REMARKS
   TC - TEMPERATURE IN CELSIUS
  WCI - WIND CHILL INDEX
   HX - HEAT INDEX
  VSB - VISIBILITY




USA.gov is the U.S. government's official web portal to all federal, state and local government web resources and services.